Breckenridge, TX

11:21 PM CDT on August 25, 2016 (GMT -0500)
Stephens County

Weather History for KBKD - September, 2013

Change the Weather History Date:

Friday, September 6, 2013

  Actual Average (KABI) Record (KABI)
Temperature  
Mean Temperature 85 °F 79 °F  
Max Temperature 97 °F 90 °F 105 °F (1948)
Min Temperature 74 °F 68 °F 47 °F (2011)
Degree Days  
Heating Degree Days 0 0  
Month to date heating degree days 0  
Since 1 July heating degree days 0  
Cooling Degree Days 20 14  
Month to date cooling degree days 87  
Year to date cooling degree days 2032  
Growing Degree Days 35 (Base 50)    
Moisture  
Dew Point 66 °F    
Average Humidity 57    
Maximum Humidity 75    
Minimum Humidity 29    
Precipitation  
Precipitation 0.04 in 0.09 in 3.83 in (1932)
Month to date precipitation 0.48  
Year to date precipitation 17.44  
Sea Level Pressure  
Sea Level Pressure 30.05 in    
Wind  
Wind Speed 5 mph (SSE)    
Max Wind Speed 29 mph    
Max Gust Speed 39 mph    
Visibility 10 miles    
Events Rain    
T = Trace of Precipitation, MM = Missing Value Source: NWS Daily Summary

Daily Weather History Graph

Daily Weather History Graph

Search for Another Location

Airport or City:

Trip Planner

Search our weather history database for the weather conditions in past years. The results will help you decide how hot, cold, wet, or windy it might be!

Date:

Astronomy

Sep. 06, 2013 Rise Set
Actual Time 7:13 AM CDT 7:53 PM CDT
Civil Twilight 6:48 AM CDT 8:18 PM CDT
Nautical Twilight 6:19 AM CDT 8:47 PM CDT
Astronomical Twilight 5:49 AM CDT 9:17 PM CDT
Moon 8:20 AM CDT (9/6) 8:27 PM CDT (9/6)
Length of Visible Light 13h 29m
Length of Day
12h 39m
New Moon, 2% of the Moon is Illuminated
Sep 6
New Moon
Sep 12
First Quarter
Sep 19
Full
Sep 26
Last Quarter
Oct 4
New

Hourly Weather History & Observations

Time (CDT) Temp. Heat Index Dew Point Humidity Pressure Visibility Wind Dir Wind Speed Gust Speed Precip Events Conditions
12:15 AM 78.4 °F - 66.0 °F 66% 30.08 in 10.0 mi SE 6.9 mph - N/A   Scattered Clouds
12:35 AM 78.1 °F - 65.3 °F 65% 30.08 in 10.0 mi SSE 6.9 mph - N/A   Clear
12:55 AM 77.9 °F - 65.1 °F 65% 30.08 in 10.0 mi SSE 3.5 mph - N/A   Clear
1:15 AM 76.5 °F - 66.6 °F 71% 30.07 in 10.0 mi Calm Calm - N/A   Clear
1:35 AM 77.7 °F - 64.9 °F 65% 30.07 in 10.0 mi SSE 5.8 mph - 0.01 in   Clear
1:55 AM 77.0 °F - 65.5 °F 67% 30.07 in 10.0 mi Calm Calm - 0.01 in   Clear
2:15 AM 77.5 °F - 64.8 °F 65% 30.07 in 10.0 mi SSE 6.9 mph - N/A   Clear
2:35 AM 77.7 °F - 64.8 °F 64% 30.07 in 10.0 mi SSE 8.1 mph - N/A   Clear
2:55 AM 77.4 °F - 64.8 °F 65% 30.07 in 10.0 mi SSE 5.8 mph - N/A   Clear
3:15 AM 77.0 °F - 65.3 °F 67% 30.06 in 10.0 mi South 4.6 mph - N/A   Clear
3:35 AM 78.3 °F - 64.9 °F 63% 30.06 in 10.0 mi South 4.6 mph - N/A   Clear
3:55 AM 76.6 °F - 66.0 °F 70% 30.06 in 10.0 mi SSE 4.6 mph - N/A   Clear
4:15 AM 76.1 °F - 65.8 °F 70% 30.07 in 10.0 mi South 3.5 mph - N/A   Clear
4:35 AM 76.3 °F - 65.3 °F 69% 30.07 in 10.0 mi SSE 4.6 mph - N/A   Clear
4:55 AM 76.3 °F - 65.3 °F 69% 30.07 in 10.0 mi South 4.6 mph - N/A   Clear
5:15 AM 75.9 °F - 65.7 °F 70% 30.07 in 10.0 mi SSE 4.6 mph - N/A   Clear
5:35 AM 76.3 °F - 65.5 °F 69% 30.07 in 10.0 mi South 5.8 mph - N/A   Clear
5:55 AM 75.2 °F - 65.5 °F 72% 30.07 in 10.0 mi South 5.8 mph - N/A   Clear
6:15 AM 75.2 °F - 65.8 °F 73% 30.07 in 10.0 mi SSE 5.8 mph - N/A   Clear
6:35 AM 74.7 °F - 66.2 °F 75% 30.08 in 10.0 mi SSE 5.8 mph - N/A   Clear
6:55 AM 75.2 °F - 66.2 °F 73% 30.08 in 10.0 mi South 6.9 mph - N/A   Clear
7:15 AM 75.4 °F - 66.2 °F 73% 30.08 in 10.0 mi South 5.8 mph - N/A   Clear
7:35 AM 74.8 °F - 66.4 °F 75% 30.09 in 10.0 mi SSE 3.5 mph - N/A   Clear
7:55 AM 75.2 °F - 66.7 °F 75% 30.10 in 10.0 mi SSE 4.6 mph - N/A   Clear
8:15 AM 76.8 °F - 67.1 °F 72% 30.10 in 10.0 mi SSE 3.5 mph - 0.01 in   Clear
8:35 AM 77.9 °F - 67.3 °F 70% 30.11 in 10.0 mi Calm Calm - 0.01 in   Clear
8:55 AM 80.8 °F 83.2 °F 67.1 °F 63% 30.11 in 10.0 mi SW 5.8 mph - 0.01 in   Clear
9:15 AM 82.2 °F 84.7 °F 66.9 °F 60% 30.11 in 10.0 mi WSW 4.6 mph - N/A   Clear
9:35 AM 83.7 °F 86.5 °F 67.5 °F 58% 30.12 in 7.0 mi SW 5.8 mph - N/A   Clear
9:55 AM 84.7 °F 87.4 °F 67.1 °F 55% 30.12 in 10.0 mi West 3.5 mph - N/A   Clear
10:15 AM 86.0 °F 88.8 °F 66.9 °F 53% 30.12 in 10.0 mi West 3.5 mph - N/A   Clear
10:35 AM 87.1 °F 89.9 °F 66.9 °F 51% 30.12 in 10.0 mi Calm Calm - N/A   Clear
10:55 AM 88.3 °F 91.2 °F 66.9 °F 49% 30.13 in 10.0 mi Calm Calm - N/A   Clear
11:15 AM 89.4 °F 92.3 °F 66.9 °F 47% 30.12 in 10.0 mi Calm Calm - N/A   Scattered Clouds
11:35 AM 91.0 °F 92.6 °F 64.2 °F 41% 30.12 in 10.0 mi SW 5.8 mph - N/A   Clear
11:55 AM 92.8 °F 93.9 °F 63.0 °F 37% 30.11 in 10.0 mi SW 4.6 mph - N/A   Clear
12:15 PM 93.4 °F 94.3 °F 62.6 °F 36% 30.11 in 10.0 mi SSW 4.6 mph - N/A   Clear
12:35 PM 93.6 °F 93.8 °F 61.2 °F 34% 30.10 in 10.0 mi WSW 8.1 mph - 0.01 in   Clear
12:55 PM 92.8 °F 93.1 °F 61.3 °F 35% 30.08 in 10.0 mi Calm Calm - 0.01 in   Mostly Cloudy
1:15 PM 94.5 °F 94.0 °F 59.5 °F 31% 30.08 in 10.0 mi West 3.5 mph - N/A   Overcast
1:35 PM 95.2 °F 95.5 °F 60.8 °F 32% 30.07 in 10.0 mi WSW 4.6 mph - N/A   Overcast
1:55 PM 96.3 °F 95.9 °F 59.5 °F 29% 30.06 in 10.0 mi Calm Calm - N/A   Mostly Cloudy
2:15 PM 95.4 °F 94.9 °F 59.4 °F 30% 30.05 in 10.0 mi Calm Calm - N/A   Scattered Clouds
2:35 PM 95.7 °F 95.5 °F 59.5 °F 30% 30.04 in 10.0 mi WNW 3.5 mph - N/A   Mostly Cloudy
2:55 PM 95.0 °F 94.4 °F 58.6 °F 30% 30.03 in 10.0 mi West 3.5 mph - N/A   Mostly Cloudy
3:15 PM 94.6 °F 93.9 °F 58.3 °F 30% 30.03 in 10.0 mi NNW 3.5 mph - N/A   Mostly Cloudy
3:35 PM 95.0 °F 94.4 °F 59.4 °F 30% 30.01 in 10.0 mi NE 3.5 mph - N/A   Overcast
3:55 PM 94.5 °F 93.6 °F 58.8 °F 30% 30.01 in 10.0 mi ENE 3.5 mph - N/A   Overcast
4:15 PM 87.8 °F 88.5 °F 62.6 °F 43% 30.01 in 10.0 mi ESE 28.8 mph 39.1 mph N/A   Overcast
4:35 PM 78.8 °F - 66.7 °F 66% 30.03 in 5.0 mi ESE 18.4 mph 31.1 mph N/A Rain Heavy Rain
4:55 PM 80.4 °F 82.4 °F 65.7 °F 61% 30.02 in 4.0 mi SE 6.9 mph - N/A Rain Light Rain
5:15 PM 80.8 °F 83.3 °F 67.5 °F 64% 30.01 in 10.0 mi SSW 3.5 mph - N/A   Mostly Cloudy
5:35 PM 83.1 °F 86.3 °F 68.2 °F 61% 29.99 in 10.0 mi SW 4.6 mph - N/A   Scattered Clouds
5:55 PM 85.5 °F 89.1 °F 68.5 °F 57% 29.99 in 10.0 mi Calm Calm - N/A   Clear
6:15 PM 83.8 °F 89.8 °F 72.7 °F 69% 29.98 in 10.0 mi Calm Calm - N/A   Clear
6:35 PM 84.2 °F 89.9 °F 72.1 °F 67% 29.98 in 10.0 mi East 3.5 mph - N/A   Scattered Clouds
6:55 PM 85.8 °F 89.4 °F 68.7 °F 56% 29.98 in 10.0 mi SE 4.6 mph - N/A   Scattered Clouds
7:15 PM 86.4 °F 93.0 °F 72.5 °F 63% 29.98 in 10.0 mi SE 4.6 mph - N/A   Mostly Cloudy
7:35 PM 86.0 °F 93.8 °F 73.8 °F 67% 29.98 in 10.0 mi ESE 5.8 mph - N/A   Scattered Clouds
7:55 PM 84.7 °F 91.7 °F 73.8 °F 69% 29.98 in 10.0 mi ESE 6.9 mph - N/A   Clear
8:15 PM 83.8 °F 91.1 °F 74.3 °F 73% 29.98 in 10.0 mi SE 8.1 mph - N/A   Mostly Cloudy
8:35 PM 84.4 °F 90.6 °F 72.7 °F 68% 29.98 in 10.0 mi SE 6.9 mph - N/A   Overcast
8:55 PM 84.2 °F 89.6 °F 71.6 °F 66% 29.98 in 10.0 mi SE 8.1 mph - N/A   Overcast
9:15 PM 84.2 °F 87.6 °F 68.4 °F 59% 29.99 in 10.0 mi SE 8.1 mph - N/A   Overcast
9:35 PM 83.8 °F 86.5 °F 67.1 °F 57% 29.99 in 10.0 mi SE 8.1 mph - N/A   Overcast
9:55 PM 83.3 °F 86.2 °F 67.6 °F 59% 29.99 in 10.0 mi SSE 8.1 mph - N/A   Overcast
10:15 PM 82.9 °F 85.0 °F 65.7 °F 56% 30.00 in 10.0 mi SSE 9.2 mph - N/A   Scattered Clouds
10:35 PM 82.4 °F 83.9 °F 64.2 °F 54% 30.00 in 10.0 mi SSE 8.1 mph - N/A   Scattered Clouds
10:55 PM 81.9 °F 83.4 °F 64.0 °F 55% 30.00 in 10.0 mi SSE 8.1 mph - N/A   Clear
11:15 PM 82.9 °F 83.7 °F 61.9 °F 49% 29.99 in 10.0 mi SSE 8.1 mph - N/A   Clear
11:35 PM 82.0 °F 83.1 °F 62.6 °F 52% 30.00 in 10.0 mi SE 8.1 mph - 0.01 in   Clear
11:55 PM 81.1 °F 82.5 °F 63.3 °F 55% 30.00 in 10.0 mi SSE 8.1 mph - 0.01 in   Scattered Clouds